McCook, NE

11:50 PM CDT on July 25, 2017 (GMT -0500)
McCook Municipal

Weather History for KMCK - May, 2013

Change the Weather History Date:

Saturday, May 11, 2013

  Actual Average Record
Temperature  
Mean Temperature 59 °F 58 °F  
Max Temperature 69 °F 72 °F 102 °F (1962)
Min Temperature 48 °F 44 °F 1 °F (2015)
Degree Days  
Heating Degree Days 7    
Growing Degree Days 8 (Base 50)    
Moisture  
Dew Point 32 °F    
Average Humidity 42    
Maximum Humidity 74    
Minimum Humidity 21    
Precipitation  
Precipitation 0.00 in 0.09 in 0.55 in (2011)
Month to date precipitation 0.28 1.04  
Year to date precipitation 3.85 5.84  
Sea Level Pressure  
Sea Level Pressure 30.26 in    
Wind  
Wind Speed 12 mph (NNE)    
Max Wind Speed 20 mph    
Max Gust Speed 26 mph    
Visibility 10 miles    
Events      
T = Trace of Precipitation, MM = Missing Value Source: NWS Daily Summary

Daily Weather History Graph

Daily Weather History Graph

Search for Another Location

Airport or City:

Trip Planner

Search our weather history database for the weather conditions in past years. The results will help you decide how hot, cold, wet, or windy it might be!

Date:

Astronomy

May. 11, 2013 Rise Set
Actual Time 6:30 AM CDT 8:47 PM CDT
Civil Twilight 5:59 AM CDT 9:18 PM CDT
Nautical Twilight 5:22 AM CDT 9:55 PM CDT
Astronomical Twilight 4:41 AM CDT 10:37 PM CDT
Moon 7:39 AM CDT (5/11) 10:29 PM CDT (5/11)
Length of Visible Light 15h 18m
Length of Day
14h 17m
Waxing Crescent, 3% of the Moon is Illuminated
May 11
Waxing Crescent
May 17
First Quarter
May 24
Full
May 31
Last Quarter
Jun 8
New

Hourly Weather History & Observations

Time (CDT) Temp. Dew Point Humidity Pressure Visibility Wind Dir Wind Speed Gust Speed Precip Events Conditions
12:53 AM 53.1 °F 45.0 °F 74% 30.16 in 10.0 mi North 15.0 mph 21.9 mph N/A   Mostly Cloudy
1:12 AM 57.2 °F 44.6 °F 63% 30.19 in 10.0 mi NNW 10.4 mph - N/A   Mostly Cloudy
1:53 AM 54.0 °F 43.0 °F 66% 30.16 in 10.0 mi North 11.5 mph - N/A   Scattered Clouds
2:53 AM 55.0 °F 43.0 °F 64% 30.16 in 10.0 mi North 16.1 mph - N/A   Partly Cloudy
3:53 AM 54.0 °F 42.1 °F 64% 30.18 in 10.0 mi North 17.3 mph - N/A   Mostly Cloudy
4:53 AM 55.0 °F 42.1 °F 62% 30.21 in 10.0 mi North 13.8 mph - N/A   Overcast
5:53 AM 52.0 °F 39.9 °F 63% 30.26 in 10.0 mi North 5.8 mph - N/A   Overcast
6:53 AM 51.1 °F 37.9 °F 61% 30.28 in 10.0 mi North 12.7 mph - N/A   Mostly Cloudy
7:53 AM 52.0 °F 37.0 °F 57% 30.32 in 10.0 mi North 11.5 mph - N/A   Clear
8:53 AM 54.0 °F 35.1 °F 49% 30.33 in 10.0 mi North 19.6 mph - N/A   Clear
9:53 AM 55.9 °F 32.0 °F 40% 30.37 in 10.0 mi NNE 17.3 mph - N/A   Clear
10:53 AM 57.9 °F 28.0 °F 32% 30.38 in 10.0 mi NNE 18.4 mph - N/A   Clear
11:53 AM 60.1 °F 21.0 °F 22% 30.37 in 10.0 mi NE 16.1 mph 23.0 mph N/A   Clear
12:53 PM 63.0 °F 23.0 °F 22% 30.36 in 10.0 mi NNE 10.4 mph 19.6 mph N/A   Clear
1:53 PM 64.0 °F 25.0 °F 23% 30.34 in 10.0 mi NE 8.1 mph 19.6 mph N/A   Clear
2:53 PM 66.9 °F 26.1 °F 21% 30.31 in 10.0 mi NNE 10.4 mph 18.4 mph N/A   Clear
3:53 PM 68.0 °F 26.1 °F 21% 30.28 in 10.0 mi NNW 13.8 mph 26.5 mph N/A   Clear
4:53 PM 68.0 °F 27.0 °F 21% 30.25 in 10.0 mi North 13.8 mph 18.4 mph N/A   Clear
5:53 PM 66.9 °F 25.0 °F 21% 30.25 in 10.0 mi North 9.2 mph - N/A   Clear
6:53 PM 66.0 °F 27.0 °F 23% 30.23 in 10.0 mi NE 5.8 mph - N/A   Clear
7:53 PM 66.0 °F 26.1 °F 22% 30.22 in 10.0 mi Calm Calm - N/A   Clear
8:53 PM 62.1 °F 26.1 °F 25% 30.22 in 10.0 mi East 3.5 mph - N/A   Scattered Clouds
9:53 PM 55.9 °F 28.0 °F 34% 30.24 in 10.0 mi SE 5.8 mph - N/A   Scattered Clouds
10:53 PM 48.0 °F 30.9 °F 52% 30.26 in 10.0 mi East 6.9 mph - N/A   Clear
11:53 PM 50.0 °F 28.0 °F 43% 30.24 in 10.0 mi SE 9.2 mph - N/A   Clear